| time (UTC) | temp C | wind direction | speed KPH | gust KPH | rain 1hr cm | rain 24hr cm | rain mn cm | humidity % | barometer mb |
| 20260507113136 | 13 | 21 | 8.0 | 22.5 | 0.20 | 0.20 | 0.20 | 85 | 1012.8 |
| 20260507111631 | 15 | 130 | 11.3 | 20.9 | 0.00 | 0.00 | 0.00 | 77 | 1012.8 |
| 20260507110117 | 15 | 15 | 6.4 | 17.7 | 0.00 | 0.00 | 0.00 | 73 | 1012.8 |
| 20260507104644 | 16 | 68 | 6.4 | 22.5 | 0.00 | 0.00 | 0.00 | 71 | 1012.9 |
| 20260507103155 | 16 | 23 | 6.4 | 19.3 | 0.00 | 0.00 | 0.00 | 70 | 1012.9 |
| 20260507101507 | 15 | 92 | 3.2 | 16.1 | 0.00 | 0.00 | 0.00 | 74 | 1013.1 |
| 20260507100004 | 15 | 58 | 8.0 | 17.7 | 0.00 | 0.00 | 0.00 | 74 | 1013.3 |
| 20260507094513 | 15 | 100 | 6.4 | 17.7 | 0.00 | 0.00 | 0.00 | 74 | 1013.2 |
| 20260507093035 | 15 | 92 | 3.2 | 11.3 | 0.00 | 0.00 | 0.00 | 75 | 1013.1 |
| 20260507091602 | 14 | 42 | 9.7 | 16.1 | 0.00 | 0.00 | 0.00 | 76 | 1013.1 |
| 20260507090042 | 14 | 37 | 6.4 | 16.1 | 0.00 | 0.00 | 0.00 | 75 | 1013.1 |
| 20260507084602 | 14 | 43 | 3.2 | 12.9 | 0.00 | 0.00 | 0.00 | 79 | 1013.1 |
| 20260507083046 | 13 | 46 | 4.8 | 9.7 | 0.00 | 0.00 | 0.00 | 79 | 1013.0 |
| 20260507081607 | 13 | 59 | 3.2 | 12.9 | 0.00 | 0.00 | 0.00 | 80 | 1013.1 |
| 20260507080147 | 13 | 35 | 6.4 | 16.1 | 0.00 | 0.00 | 0.00 | 83 | 1013.0 |
| 20260507074650 | 13 | 76 | 11.3 | 19.3 | 0.00 | 0.00 | 0.00 | 83 | 1012.9 |
| 20260507073149 | 13 | 23 | 1.6 | 20.9 | 0.00 | 0.00 | 0.00 | 83 | 1012.7 |
| 20260507070146 | 12 | 289 | 4.8 | 17.7 | 0.00 | 0.00 | 0.00 | 87 | 1013.0 |
| 20260507064649 | 12 | 69 | 1.6 | 6.4 | 0.00 | 0.00 | 0.00 | 88 | 1012.9 |
| 20260507063002 | 11 | 79 | 0.0 | 12.9 | 0.00 | 0.00 | 0.00 | 91 | 1012.9 |
| 20260507061504 | 8 | 42 | 0.0 | 3.2 | 0.00 | 0.00 | 0.00 | 90 | 1012.9 |
| 20260507060155 | 8 | 272 | 0.0 | 3.2 | 0.00 | 0.00 | 0.00 | 89 | 1012.7 |
| 20260507054506 | 8 | 293 | 0.0 | 3.2 | 0.00 | 0.00 | 0.00 | 91 | 1012.6 |
| 20260507053047 | 7 | 290 | 0.0 | 3.2 | 0.00 | 0.00 | 0.00 | 89 | 1012.4 |
| 20260507051608 | 7 | 277 | 0.0 | 4.8 | 0.00 | 0.00 | 0.00 | 89 | 1012.2 |
| 20260507050112 | 7 | 276 | 0.0 | 4.8 | 0.00 | 0.00 | 0.00 | 89 | 1012.2 |
| 20260507044618 | 7 | 266 | 3.2 | 6.4 | 0.00 | 0.00 | 0.00 | 88 | 1012.0 |
| 20260507043156 | 7 | 263 | 0.0 | 6.4 | 0.00 | 0.00 | 0.00 | 88 | 1012.0 |
| 20260507041515 | 7 | 274 | 3.2 | 6.4 | 0.00 | 0.00 | 0.00 | 88 | 1012.1 |
| 20260507040023 | 7 | 262 | 3.2 | 6.4 | 0.00 | 0.00 | 0.00 | 88 | 1012.2 |
| 20260507034635 | 7 | 281 | 1.6 | 6.4 | 0.00 | 0.00 | 0.00 | 88 | 1012.2 |
| 20260507033148 | 7 | 273 | 1.6 | 4.8 | 0.00 | 0.00 | 0.00 | 87 | 1012.2 |
| 20260507031507 | 7 | 268 | 3.2 | 4.8 | 0.00 | 0.00 | 0.00 | 87 | 1012.1 |
| 20260507030034 | 7 | 282 | 1.6 | 6.4 | 0.00 | 0.00 | 0.00 | 88 | 1012.1 |
| 20260507024622 | 7 | 264 | 3.2 | 4.8 | 0.00 | 0.00 | 0.00 | 88 | 1011.9 |
| 20260507023145 | 8 | 264 | 1.6 | 4.8 | 0.00 | 0.00 | 0.00 | 87 | 1011.8 |
| 20260507021658 | 8 | 264 | 0.0 | 3.2 | 0.00 | 0.00 | 0.00 | 86 | 1011.7 |
| 20260507020159 | 8 | 264 | 0.0 | 3.2 | 0.00 | 0.00 | 0.00 | 86 | 1011.7 |
| 20260507014525 | 8 | 250 | 0.0 | 4.8 | 0.00 | 0.00 | 0.00 | 86 | 1011.8 |
| 20260507013038 | 8 | 271 | 3.2 | 6.4 | 0.00 | 0.00 | 0.00 | 86 | 1011.8 |
| 20260507011605 | 8 | 279 | 1.6 | 4.8 | 0.00 | 0.00 | 0.00 | 86 | 1012.0 |
| 20260507010047 | 8 | 266 | 1.6 | 6.4 | 0.00 | 0.00 | 0.00 | 86 | 1012.0 |
| 20260507004606 | 8 | 291 | 1.6 | 4.8 | 0.00 | 0.00 | 0.00 | 86 | 1012.1 |
| 20260507003121 | 8 | 268 | 3.2 | 4.8 | 0.00 | 0.00 | 0.00 | 86 | 1012.1 |
| 20260507001647 | 8 | 268 | 3.2 | 4.8 | 0.00 | 0.00 | 0.00 | 86 | 1012.1 |
| 20260507000157 | 8 | 264 | 3.2 | 4.8 | 0.00 | 0.00 | 0.00 | 86 | 1012.3 |
| 20260506234524 | 9 | 264 | 0.0 | 4.8 | 0.00 | 0.00 | 0.00 | 85 | 1012.3 |
| 20260506233102 | 10 | 258 | 3.2 | 4.8 | 0.00 | 0.00 | 0.00 | 85 | 1012.5 |
| 20260506231526 | 10 | 288 | 1.6 | 3.2 | 0.00 | 0.00 | 0.00 | 86 | 1012.6 |
| 20260506230005 | 10 | 254 | 0.0 | 3.2 | 0.00 | 0.00 | 0.00 | 86 | 1012.5 |
| 20260506224505 | 10 | 254 | 1.6 | 6.4 | 0.00 | 0.00 | 0.00 | 86 | 1012.5 |
| 20260506223136 | 9 | 272 | 3.2 | 6.4 | 0.00 | 0.00 | 0.00 | 86 | 1012.5 |
| 20260506221528 | 9 | 265 | 3.2 | 6.4 | 0.00 | 0.00 | 0.00 | 87 | 1012.5 |
| 20260506220004 | 9 | 258 | 3.2 | 4.8 | 0.00 | 0.00 | 0.00 | 87 | 1012.5 |
| 20260506214626 | 10 | 287 | 1.6 | 3.2 | 0.00 | 0.00 | 0.00 | 87 | 1012.6 |
| 20260506213127 | 10 | 287 | 0.0 | 4.8 | 0.00 | 0.00 | 0.00 | 86 | 1012.5 |
| 20260506211515 | 10 | 246 | 0.0 | 4.8 | 0.00 | 0.00 | 0.00 | 86 | 1012.5 |
| 20260506204511 | 10 | 283 | 1.6 | 3.2 | 0.00 | 0.00 | 0.00 | 85 | 1012.4 |
| 20260506203102 | 10 | 277 | 4.8 | 9.7 | 0.00 | 0.00 | 0.00 | 86 | 1012.2 |
| 20260506201558 | 10 | 283 | 3.2 | 6.4 | 0.00 | 0.00 | 0.00 | 85 | 1012.1 |
| 20260506200016 | 11 | 266 | 1.6 | 6.4 | 0.00 | 0.00 | 0.00 | 84 | 1011.8 |
| 20260506194533 | 11 | 276 | 1.6 | 9.7 | 0.00 | 0.03 | 0.00 | 83 | 1011.7 |
| 20260506193034 | 11 | 281 | 1.6 | 6.4 | 0.00 | 0.03 | 0.00 | 82 | 1011.3 |
| 20260506191526 | 12 | 273 | 3.2 | 6.4 | 0.00 | 0.03 | 0.00 | 79 | 1011.1 |
| 20260506190109 | 12 | 258 | 3.2 | 4.8 | 0.00 | 0.03 | 0.00 | 78 | 1011.0 |
| 20260506183137 | 13 | 281 | 0.0 | 4.8 | 0.00 | 0.05 | 0.00 | 73 | 1010.6 |
| 20260506180121 | 15 | 333 | 0.0 | 3.2 | 0.00 | 0.05 | 0.00 | 65 | 1010.7 |
| 20260506174508 | 16 | 118 | 3.2 | 9.7 | 0.00 | 0.13 | 0.00 | 59 | 1010.6 |
| 20260506173002 | 16 | 125 | 4.8 | 8.0 | 0.00 | 0.13 | 0.00 | 57 | 1010.6 |
| 20260506171538 | 16 | 135 | 6.4 | 11.3 | 0.00 | 0.13 | 0.00 | 56 | 1010.5 |
| 20260506170021 | 17 | 64 | 4.8 | 11.3 | 0.00 | 0.13 | 0.00 | 56 | 1010.6 |
| 20260506164535 | 17 | 138 | 0.0 | 4.8 | 0.00 | 0.13 | 0.00 | 58 | 1010.7 |
| 20260506163053 | 16 | 133 | 4.8 | 8.0 | 0.00 | 0.13 | 0.00 | 57 | 1010.6 |
| 20260506161619 | 16 | 141 | 0.0 | 3.2 | 0.00 | 0.13 | 0.00 | 59 | 1010.8 |
| 20260506160108 | 15 | 129 | 1.6 | 9.7 | 0.00 | 0.13 | 0.00 | 63 | 1010.8 |
| 20260506154631 | 15 | 171 | 3.2 | 12.9 | 0.00 | 0.13 | 0.00 | 65 | 1010.9 |
| 20260506153144 | 15 | 156 | 6.4 | 12.9 | 0.00 | 0.13 | 0.00 | 67 | 1011.0 |
| 20260506151649 | 15 | 127 | 9.7 | 16.1 | 0.00 | 0.13 | 0.00 | 67 | 1011.0 |
| 20260506150115 | 15 | 177 | 6.4 | 19.3 | 0.00 | 0.13 | 0.00 | 67 | 1011.1 |
| 20260506144700 | 16 | 179 | 11.3 | 17.7 | 0.00 | 0.23 | 0.00 | 65 | 1011.0 |
| 20260506141509 | 16 | 128 | 4.8 | 14.5 | 0.00 | 0.23 | 0.00 | 60 | 1011.0 |
| 20260506134512 | 16 | 100 | 4.8 | 11.3 | 0.00 | 0.23 | 0.00 | 59 | 1011.1 |
| 20260506133038 | 17 | 129 | 4.8 | 12.9 | 0.00 | 0.23 | 0.00 | 59 | 1011.1 |
| 20260506131655 | 17 | 89 | 1.6 | 9.7 | 0.00 | 0.23 | 0.00 | 56 | 1011.1 |
| 20260506124504 | 16 | 75 | 11.3 | 16.1 | 0.00 | 0.23 | 0.00 | 62 | 1011.4 |
| 20260506123030 | 16 | 98 | 8.0 | 12.9 | 0.00 | 0.23 | 0.00 | 58 | 1011.5 |
| 20260506121547 | 16 | 93 | 6.4 | 17.7 | 0.00 | 0.23 | 0.00 | 60 | 1011.4 |
| 20260506120057 | 16 | 89 | 6.4 | 16.1 | 0.00 | 0.23 | 0.00 | 61 | 1011.4 |
| 20260506114622 | 17 | 137 | 11.3 | 19.3 | 0.00 | 0.43 | 0.00 | 53 | 1011.5 |